Location: Houston
(29.7630°N, 95.3630°W)
Time: 13:55:37
(UTC-06:00)

Daily predictions for brighter satellites

Satellite Brightness Start Highest point End
(mag) Time Altitude Azimuth Time Altitude Azimuth Time Altitude Azimuth
USA 215 4.0 18:31:04 10° ENE 18:36:55 35° SE 18:42:43 10° S
Lacrosse 5 4.1 18:36:30 10° WNW 18:40:48 29° WSW 18:45:06 10° S
Cosmos 1782 Rocket 3.9 18:38:11 10° SSE 18:42:23 44° E 18:46:36 10° NNE
Cosmos 2237 Rocket 3.8 18:39:18 10° NW 18:44:32 41° WSW 18:49:45 10° S
Okean 3 3.5 18:46:25 10° N 18:50:35 88° W 18:54:46 10° S
FREGAT/IRIS 4.0 18:48:26 10° ESE 18:50:35 19° ENE 18:52:45 10° NNE
SL-16 R/B 2.2 18:46:07 10° NNW 18:51:48 81° ENE 18:57:26 10° SSE
H-2A R/B 3.2 18:48:48 10° SE 18:52:26 39° ENE 18:56:05 10° N
Cosmos 494 Rocket 4.3 18:48:30 10° S 18:53:28 46° ESE 18:58:24 10° NNE
CENTAUR R/B 4.2 18:50:56 10° WSW 18:56:04 30° NW 19:01:46 10° N
Tiangong 2 2.2 18:53:05 10° WNW 18:56:07 43° SW 18:59:08 10° SE
OAO 2 Rocket 3.9 18:55:39 10° WNW 19:00:26 45° N 19:04:29 14° ENE
Sich 1 Rocket 3.9 18:57:38 10° S 19:02:08 73° W 19:06:36 10° N
CZ-4C R/B 4.4 18:58:04 10° NNE 19:02:12 15° NE 19:05:22 12° ENE
Tsikada Rocket 4.0 19:01:02 10° S 19:07:20 66° E 19:13:41 10° NNE
Cosmos 921 Rocket 3.0 19:06:01 10° N 19:10:30 69° ENE 19:14:53 10° SSE
Cosmos 1603 4.3 19:05:45 10° N 19:10:50 34° ENE 19:15:51 10° SE
SJ-6B 3.7 19:07:59 10° SE 19:11:08 25° ENE 19:14:20 10° NNE
Okean 2 Rocket 3.1 19:07:22 10° S 19:11:40 58° E 19:16:00 10° NNE
Meteor 1-4 Rocket 2.5 19:08:27 10° S 19:11:52 54° E 19:15:20 10° NNE
COSMOS 2455 2.8 19:06:09 10° SSW 19:12:07 77° ESE 19:18:09 10° NNE
Cosmos 44 Rocket 3.8 19:07:44 10° NNW 19:12:47 66° WSW 19:17:53 10° SSE
USA 32 4.2 19:08:49 10° S 19:14:01 78° W 19:19:16 10° N
Cosmos 2263 Rocket 2.3 19:08:46 10° S 19:14:04 49° ESE 19:19:27 10° NNE
BREEZE-M DEB (TANK) 3.1 19:14:36 10° WSW 19:17:06 59° NW 19:22:29 10° NE
IUS-18 SRM-1 3.2 19:16:12 10° WSW 19:18:17 30° S 19:21:07 14° SE
Thor Agena Rocket 3.6 19:13:35 10° NNE 19:18:30 51° E 19:23:22 10° S
CZ-2D R/B 4.2 19:17:00 18° ESE 19:18:59 27° ENE 19:22:19 10° NNE
ALOS 4.0 19:15:12 10° SSW 19:19:27 35° W 19:23:44 10° NNW
Cosmos 2151 Rocket 4.1 19:17:27 10° SSE 19:21:34 36° E 19:25:40 10° NNE
Cosmos 1464 Rocket 4.4 19:15:51 10° NNW 19:21:55 67° W 19:28:01 10° S
Iridium 4 Rocket 3.5 19:18:21 10° N 19:22:51 66° W 19:27:02 10° S
Cosmos 1602 4.3 19:20:48 10° SSW 19:24:38 59° W 19:28:29 10° N
Meteor 1-13 Rocket 4.2 19:25:16 10° N 19:30:39 52° E 19:36:01 10° SSE
Okean 1 4.2 19:29:32 10° NNW 19:33:22 50° W 19:37:11 10° SSW
CZ-3A R/B 4.0 19:28:34 10° WSW 19:34:17 65° SSE 19:52:35 24° E
Cosmos 397 4.4 19:31:51 10° SSW 19:35:47 61° ESE 19:38:34 22° NE
Cosmos 2346 Rocket 4.4 19:30:59 10° S 19:37:12 88° E 19:43:23 10° N
Cosmos 1331 Rocket 4.1 19:34:01 10° N 19:39:10 50° ENE 19:42:12 23° SE
ATLAS CENTAUR R/B 3.5 19:37:53 10° NNE 19:39:07 15° NNE 19:39:07 15° NNE
Geosat 4.1 19:43:52 30° NE 19:46:05 50° ESE 19:50:55 10° S
Meteor 1-5 Rocket 4.2 19:44:29 10° S 19:50:19 78° E 19:56:17 10° N
ARGOS Delta rocket 4.0 19:48:54 10° N 19:53:31 66° WNW 19:57:55 10° SSW
Cosmos 1975 Rocket 4.2 19:50:20 10° NNW 19:54:35 45° W 19:58:51 10° SSW
Alouette 2 Rocket 4.2 19:51:22 10° SSW 19:54:56 45° W 19:58:25 10° N
Meteor 2-4 Rocket 3.5 19:49:43 10° N 19:55:25 75° E 20:00:55 10° SSE
GPS 2-05 Rocket1 4.3 19:53:39 10° WNW 19:55:55 26° NNW 19:55:55 26° NNW
Cosmos 2251 Rocket 3.8 19:52:17 10° SSW 19:57:28 68° WNW 20:02:41 10° N
Cosmos 1536 3.1 19:55:26 10° SSW 19:59:25 66° W 20:03:27 10° N
SeaSat 1 3.4 20:01:42 32° NNE 20:01:42 32° NNE 20:04:54 10° N
Cosmos 1300 Rocket 4.1 19:56:51 10° S 19:59:51 42° SSE 19:59:51 42° SSE
Lacrosse 5 rocket 1.8 19:59:01 10° SW 20:02:37 49° NW 20:02:54 47° NW
H-2A R/B 3.1 20:02:13 10° SW 20:08:25 26° S 20:08:25 26° S
Cosmos 1634 Rocket 3.8 20:03:33 10° N 20:09:45 81° E 20:15:55 10° S
ERS-2 4.4 20:07:07 10° SSW 20:10:11 25° W 20:13:16 10° NW
Resurs 01 Rocket 3.5 20:16:17 20° N 20:16:17 20° N 20:17:43 10° N
Cosmos 1943 3.1 20:08:36 10° NNW 20:14:04 69° NE 20:14:04 69° NE
USA 215 3.9 20:14:51 16° NNE 20:19:54 50° NW 20:26:09 10° WSW
BREEZE-M DEB (TANK) 4.4 19:58:40 10° SW 20:21:30 74° SE 20:22:53 58° ENE
Cosmos 2142 Rocket 4.3 20:15:26 10° N 20:21:46 86° E 20:24:14 40° S
BREEZE-M DEB (TANK) 4.5 20:03:27 10° SW 20:24:46 89° NW 20:26:32 54° NE
Envisat 3.8 20:22:33 10° S 20:27:26 50° W 20:32:22 10° NNW
Sakura Rocket 4.0 20:22:28 10° W 20:28:01 70° S 20:28:22 68° SSE
CZ-4C R/B 3.1 20:44:12 10° NNW 20:50:38 66° N 20:50:38 66° N
CZ-3C R/B 3.7 21:25:40 10° WSW 22:17:22 - ESE 21:29:40 45° SW
